Regional Weather Roundup
Issued by NWS

Home | Current Version | Previous Version | Graphics & Text | Print | Product List | Glossary On
Versions: 1 2 3 4 5 6 7 8 9 10 11 12 13 14 15 16 17 18 19 20 21 22 23 24 25 26 27 28 29 30 31 32 33 34 35 36 37 38 39 40 41 42 43 44 45 46 47 48 49 50
713
ASUS43 KOAX 171110
RWRNE

WEATHER ROUNDUP FOR NEBRASKA
NATIONAL WEATHER SERVICE OMAHA NE
600 AM CDT THU AUG 17 2017

NOTES: SATELLITE DATA IS BEING USED TO AUGMENT CLOUD COVER ABOVE
       12000 FEET.
       "FAIR" INDICATES FEW OR NO CLOUDS BELOW 12,000 FEET WITH NO
       SIGNIFICANT WEATHER AND/OR OBSTRUCTIONS TO VISIBILITY.


NEZ001>004-019>022-054>056-171200-
NEBRASKA PANHANDLE

CITY           SKY/WX    TMP DP  RH WIND       PRES   REMARKS
SCOTTSBLUFF    CLEAR     53  49  86 E8        30.06S
ALLIANCE       CLEAR     48  45  89 W6        30.05S
CHADRON        CLEAR     50  47  89 CALM      29.99S
GORDON         FAIR      55  49  81 SW8       30.02F
KIMBALL        CLEAR     52  51  97 SW7       30.12F
SIDNEY         CLEAR     54  51  90 SW10      30.10S
$$

NEZ057>060-069>072-079>082-171200-
SOUTHWEST NEBRASKA

CITY           SKY/WX    TMP DP  RH WIND       PRES   REMARKS
NORTH PLATTE   CLEAR     52  51  97 CALM      30.05R
IMPERIAL       CLEAR     52  50  93 W8        30.07R
LEXINGTON      CLEAR     54  52  93 W5        30.03R
MCCOOK         CLEAR     54  54 100 W6        30.05R
OGALLALA       CLEAR     50  49  96 CALM      30.06S
$$

NEZ005>010-023>029-035>040-094-171200-
NORTH CENTRAL NEBRASKA

CITY           SKY/WX    TMP DP  RH WIND       PRES   REMARKS
VALENTINE      CLEAR     53  48  83 CALM      29.99R
AINSWORTH      CLEAR     53  50  92 W6        29.99R
BROKEN BOW     CLEAR     57  50  77 CALM      30.00R
O`NEILL        CLEAR     55  54  96 W9        29.95R
ORD            CLEAR     52  49  89 NW5       29.96R
THEDFORD       CLEAR     54  52  90 SW7       30.03S
$$

NEZ041-046>049-061>064-073>077-083>087-171200-
SOUTH CENTRAL NEBRASKA

CITY           SKY/WX    TMP DP  RH WIND       PRES   REMARKS
GRAND ISLAND   CLEAR     57  56  96 W8        29.98R
AURORA         CLEAR     57  57 100 W6        29.97R
HASTINGS       CLEAR     56  53  90 W6        30.01R
HEBRON         CLEAR     60  58  95 W3        29.97R
HOLDREGE       CLEAR     55  53  90 W3        30.03R
KEARNEY        CLEAR     57  54  89 W3        30.01R
YORK           CLEAR     57  57 100 W8        29.96R
$$

NEZ011>018-030>034-042>045-171200-
NORTHEAST NEBRASKA

CITY           SKY/WX    TMP DP  RH WIND       PRES   REMARKS
NORFOLK        CLEAR     59  55  87 W9        29.90R
ALBION         CLEAR     57  55  94 NW3       29.94R
BLAIR          RAIN      63  61  93 W7        29.87R
COLUMBUS       CLEAR     60  57  89 W8        29.93R
FREMONT        CLEAR     62  60  93 W12       29.89R
TEKAMAH        CLOUDY    65  60  84 W8        29.86R
WAYNE          CLEAR     60  58  91 W9        29.88R
$$

NEZ050>053-065>068-078-088>093-171200-
SOUTHEAST NEBRASKA

CITY           SKY/WX    TMP DP  RH WIND       PRES   REMARKS
LINCOLN        CLEAR     64  59  83 W10       29.92R
OMAHA EPPLEY   CLOUDY    66  60  81 W8        29.86R
BEATRICE       CLEAR     61  60  95 W6        29.93R
FALLS CITY     CLEAR     65  61  87 W13       29.89R
NEBRASKA CITY  CLEAR     62  62 100 W8        29.90R
PLATTSMOUTH    CLEAR     62  60  93 W8        29.88R
$$

NEZ044-045-051>053-067-171200-
OMAHA AREA

CITY           SKY/WX    TMP DP  RH WIND       PRES   REMARKS
OMAHA EPPLEY   CLOUDY    66  60  81 W8        29.86R
BLAIR          RAIN      63  61  93 W7        29.87R
FREMONT        CLEAR     62  60  93 W12       29.89R
MILLARD        CLEAR     65  62  90 W6        29.87R
OFFUTT AFB     CLEAR     63  60  88 W8        29.86R
PLATTSMOUTH    CLEAR     62  60  93 W8        29.88R
WAHOO          FAIR      62  60  93 W9        29.90R
$$




USA.gov is the U.S. government's official web portal to all federal, state and local government web resources and services.